Location: Aixovall
(42.4760°N, 1.4902°E)
Time: 00:53:50
(UTC+00:00)

YAOGAN 11 - Visible Passes

Search period start: 19 November 2025 00:00
Search period end: 29 November 2025 00:00
Orbit: 600 x 648 km, 98.4° (Epoch: 18 November)

Date Brightness Start Highest point End Pass type
(mag) Time Alt. Az. Time Alt. Az. Time Alt. Az.
19 Nov 6.0 06:17:08 10° SE 06:21:03 31° ENE 06:24:59 10° N visible
22 Nov 7.0 05:39:01 10° E 05:41:01 13° ENE 05:43:01 10° NE visible
23 Nov 6.7 05:56:14 10° ESE 05:59:21 19° ENE 06:02:28 10° NNE visible
24 Nov 6.1 06:13:58 10° SE 06:17:45 28° ENE 06:21:31 10° N visible
27 Nov 7.0 05:36:13 10° E 05:37:40 11° ENE 05:39:07 10° NE visible
28 Nov 6.8 05:53:08 10° ESE 05:55:59 17° ENE 05:58:50 10° NNE visible
